Location: Tel Aviv
(32.0670°N, 34.7670°E)
Time: 12:32:01
(UTC+03:00)

Transit 2A - Pass Details

Date: 25 January 2022
Orbit: 598 x 960 km, 66.7° (Epoch: 20 May)

Event Time Altitude Azimuth Distance (km) Brightness Sun altitude
Rises 09:44:19 0° 179° (S) 3,396 10.1 30.4°
Reaches altitude 10° 09:46:55 10° 170° (S) 2,516 9.8 30.7°
Maximum altitude 09:52:10 35° 107° (ESE) 1,453 8.6 31.3°
Drops below altitude 10° 09:57:45 10° 45° (NE) 2,675 8.8 32.0°
Sets 10:00:34 0° 36° (NE) 3,640 9.3 32.3°
